CW3201 Weather Reports


time (UTC)temp
F
wind
direction
speed
knots
gust
knots
rain 1hr
in
rain 24hr
in
rain mn
in
humidity
%
barometer
mb
20260502130346 43 272 5.2 7.8 0.00 0.00 0.00 56 1017.7
20260502123335 35 297 3.5 5.2 0.00 0.00 0.00 72 1017.8
20260502120326 33 123 0.0 3.5 0.00 0.00 0.00 69 1017.8
20260502113327 32 342 0.0 0.9 0.00 0.00 0.00 74 1017.8
20260502110405 31 317 2.6 5.2 0.00 0.00 0.00 76 1017.9
20260502103337 31 284 3.5 4.3 0.00 0.00 0.00 73 1018.3
20260502100334 34 205 2.6 4.3 0.00 0.00 0.00 66 1018.1
20260502090326 33 259 2.6 3.5 0.00 0.00 0.00 70 1018.1
20260502070332 35 286 1.7 3.5 0.00 0.00 0.00 64 1018.7
20260502063336 37 286 2.6 3.5 0.00 0.00 0.00 62 1018.9
20260502060314 38 311 1.7 2.6 0.00 0.00 0.00 59 1019.0
20260502053329 39 277 0.0 0.0 0.00 0.00 0.00 56 1019.0
20260502050332 39 293 1.7 3.5 0.00 0.00 0.00 57 1019.0
20260502043323 39 302 1.7 4.3 0.00 0.00 0.00 58 1019.0
20260502040320 41 298 2.6 4.3 0.00 0.00 0.00 54 1018.9
20260502033329 40 307 4.3 4.3 0.00 0.00 0.00 58 1018.6
20260502030335 42 302 3.5 4.3 0.00 0.00 0.00 53 1018.3
20260502023326 46 303 4.3 5.2 0.00 0.00 0.00 44 1017.8
20260502020330 52 338 5.2 7.0 0.00 0.00 0.00 34 1017.3
20260502013330 56 349 8.7 12.2 0.00 0.00 0.00 30 1017.1
20260502010327 58 344 12.2 14.8 0.00 0.00 0.00 27 1016.7
20260502003348 59 341 12.2 15.6 0.00 0.00 0.00 26 1016.6
20260502000324 58 331 9.6 15.6 0.00 0.00 0.00 26 1016.6
20260501233345 60 346 9.6 15.6 0.00 0.00 0.00 25 1016.6
20260501230342 61 339 7.0 13.9 0.00 0.00 0.00 24 1016.5
20260501223401 59 344 13.0 14.8 0.00 0.00 0.00 26 1016.5
20260501220334 59 289 6.1 14.8 0.00 0.00 0.00 29 1016.7
20260501213318 58 284 9.6 18.2 0.00 0.00 0.00 29 1017.1
20260501210323 59 321 9.6 13.9 0.00 0.00 0.00 27 1017.2
20260501203319 58 294 6.1 14.8 0.00 0.00 0.00 27 1017.3
20260501200319 59 305 7.8 18.2 0.00 0.00 0.00 28 1017.4
20260501193318 59 317 7.8 15.6 0.00 0.00 0.00 27 1017.5
20260501190329 58 306 6.1 18.2 0.00 0.00 0.00 25 1017.8
20260501183324 56 234 7.8 13.9 0.00 0.00 0.00 27 1017.8
20260501180336 55 315 8.7 15.6 0.00 0.00 0.00 32 1017.9
20260501173328 55 343 7.0 13.0 0.00 0.00 0.00 35 1018.3
20260501170331 54 304 9.6 17.4 0.00 0.00 0.00 36 1018.3
20260501163323 52 209 6.1 13.9 0.00 0.00 0.00 39 1018.3
20260501160316 51 292 9.6 15.6 0.00 0.00 0.00 39 1018.2
20260501153329 49 272 9.6 14.8 0.00 0.00 0.00 44 1018.3
20260501150319 46 251 9.6 14.8 0.00 0.00 0.00 51 1018.4
20260501143339 43 263 9.6 14.8 0.00 0.00 0.00 59 1018.2
20260501140346 40 267 10.4 13.9 0.00 0.00 0.00 62 1018.2
20260501133339 37 240 8.7 13.0 0.00 0.00 0.00 67 1018.1